Weather in Des Moines

United States     41°34′46″N   93°38′41″W
temp.,
°C
wind,
m/s
gust,
m/s
humid.,
%
clouds,
%
prec.,
mm/h
press.,
hPa
HPBL,
m
16 may, sun
sun1601:00+12s379852 0.3 1018147
04:00+11sse229739 0.0 101821
07:00+11sse249789 0.0 1019126
10:00+17se4682100 0.0 1019585
13:00+17se5780100 0.0 1018766
16:00+16ese5790100 1.7 1017587
19:00+14e4997100 4.4 1017370
22:00+14e51297100 1.4 1016450
17 may, mon
mon1701:00+13e51297100 8.1 1016620
04:00+13ene51298100 7.0 1015465
07:00+13ene51198100 8.4 1016479
10:00+14e51196100 1.4 1017604
13:00+17e6986100 1.5 1016845
16:00+16ene5887100 0.1 1016829
19:00+14ene4895100 0.1 1016456
22:00+14e51196100 0.0 1017480
18 may, tue
tue1801:00+14ene51094100 0.0 1016626
04:00+14ene3898100 0.3 1015445
07:00+14ene3698100 0.6 1016388
10:00+15ene4696100 0.1 1016411
13:00+17ese4591100 0.1 1015548
16:00+18ne2286100 0.1 1014420
19:00+18e3486100 0.1 1014258
22:00+16ene2493100 0.0 101598
19 may, wed
wed1901:00+14e3497100 0.0 101483
04:00+15ene3598100 0.0 1012120
07:00+16ese3699100 0.1 1014188
10:00+18ese4592100 0.0 1013434
13:00+18ese71497100 4.1 1012827
16:00+18s61194100 2.9 1012655
19:00+20sw4988100 2.9 1012738
22:00+17s389698 0.0 1014196
20 may, thu
thu2001:00+18s41297100 0.0 1015353
04:00+17s4119755 0.8 1015351
07:00+17s51396100 1.1 1016462
10:00+21s8128387 0.0 1017926
13:00+23s71074100 0.1 10171167
16:00+23s61075100 0.0 10171168
19:00+22s61283100 0.1 1017887
22:00+20s51392100 0.0 1019568